SIA265 WSSS-YBBN

Flight info

Callsign SIA265
Flight time N/A
Altitude 39000
Route IDBUD1B IDBUD T24 SURGA M635 BLI G326 GUNAM/N0480F410 G326 VINAX DCT BELUL DCT UNVAT V327 IGUPI Y340 LAMUG Y177 SMOKA
Aircraft A359/H-SDE2E3GHIJ3J4J5LM1ORWXY/LB1D1

Departure

Time 2026-05-08 06:17
Airport Singapore Changi Airport (WSSS)

Arrival

Time N/A
Airport Brisbane International Airport (YBBN)
Time Latitude Longitude Altitude Speed Heading
2026-05-08 05:48 1.35848 103.98522 32 ft 0 kts 102°
2026-05-08 06:04 1.35850 103.98515 33 ft 2 kts 102°
2026-05-08 06:04 1.35853 103.98501 33 ft 2 kts 102°
2026-05-08 06:05 1.35855 103.98492 33 ft 2 kts 102°
2026-05-08 06:05 1.35857 103.98482 33 ft 2 kts 89°
2026-05-08 06:05 1.35855 103.98467 33 ft 2 kts 73°
2026-05-08 06:05 1.35851 103.98456 33 ft 2 kts 61°
2026-05-08 06:06 1.35839 103.98441 33 ft 2 kts 41°
2026-05-08 06:06 1.35827 103.98432 33 ft 1 kts 26°
2026-05-08 06:06 1.35821 103.98430 33 ft 1 kts 22°
2026-05-08 06:10 1.35838 103.98438 33 ft 6 kts 24°
2026-05-08 06:10 1.35899 103.98464 33 ft 12 kts 23°
2026-05-08 06:10 1.35986 103.98501 33 ft 14 kts 22°
2026-05-08 06:10 1.36078 103.98540 33 ft 15 kts 23°
2026-05-08 06:11 1.36180 103.98583 33 ft 16 kts 22°
2026-05-08 06:11 1.36292 103.98630 33 ft 17 kts 23°
2026-05-08 06:11 1.36410 103.98680 33 ft 19 kts 22°
2026-05-08 06:11 1.36538 103.98734 33 ft 20 kts 23°
2026-05-08 06:12 1.36670 103.98791 33 ft 16 kts 22°
2026-05-08 06:12 1.36757 103.98826 33 ft 11 kts 24°
2026-05-08 06:12 1.36802 103.98876 33 ft 9 kts 88°
2026-05-08 06:12 1.36778 103.98948 33 ft 11 kts 113°
2026-05-08 06:13 1.36743 103.99029 33 ft 13 kts 113°
2026-05-08 06:13 1.36703 103.99123 33 ft 15 kts 113°
2026-05-08 06:13 1.36658 103.99227 33 ft 17 kts 113°
2026-05-08 06:13 1.36608 103.99345 33 ft 19 kts 113°
2026-05-08 06:14 1.36553 103.99474 33 ft 20 kts 112°
2026-05-08 06:14 1.36502 103.99591 33 ft 18 kts 114°
2026-05-08 06:14 1.36460 103.99693 33 ft 14 kts 113°
2026-05-08 06:14 1.36424 103.99776 33 ft 12 kts 114°
2026-05-08 06:15 1.36383 103.99853 33 ft 12 kts 135°
2026-05-08 06:15 1.36301 103.99884 33 ft 10 kts 171°
2026-05-08 06:15 1.36226 103.99894 33 ft 11 kts 175°
2026-05-08 06:15 1.36152 103.99880 33 ft 7 kts 201°
2026-05-08 06:16 1.36144 103.99877 33 ft 0 kts 201°
2026-05-08 06:16 1.36080 103.99851 33 ft 40 kts 202°
2026-05-08 06:16 1.35540 103.99625 33 ft 121 kts 203°
2026-05-08 06:16 1.34552 103.99214 40 ft 184 kts 201°
2026-05-08 06:17 1.32165 103.98215 1780 ft 186 kts 202°
2026-05-08 06:17 1.30997 103.97723 2426 ft 188 kts 202°
2026-05-08 06:17 1.29730 103.97186 2860 ft 203 kts 202°
2026-05-08 06:18 1.28402 103.96624 3190 ft 220 kts 202°
2026-05-08 06:18 1.26954 103.96011 3597 ft 236 kts 202°
2026-05-08 06:18 1.25381 103.95349 4033 ft 253 kts 202°
2026-05-08 06:18 1.23720 103.94714 4451 ft 269 kts 192°
2026-05-08 06:19 1.21809 103.94647 5061 ft 276 kts 169°
2026-05-08 06:19 1.20018 103.95065 5815 ft 278 kts 165°
2026-05-08 06:19 1.18132 103.95559 6549 ft 283 kts 164°
2026-05-08 06:19 1.16214 103.96057 7279 ft 287 kts 165°
2026-05-08 06:20 1.14267 103.96554 7997 ft 290 kts 165°
2026-05-08 06:20 1.12298 103.97053 8690 ft 294 kts 162°
2026-05-08 06:20 1.10521 103.97759 9299 ft 296 kts 150°
2026-05-08 06:20 1.08903 103.98802 9932 ft 298 kts 142°
2026-05-08 06:21 1.07185 104.00128 10519 ft 305 kts 140°
2026-05-08 06:21 1.05541 104.01432 10820 ft 320 kts 140°
2026-05-08 06:21 1.03811 104.02895 11113 ft 335 kts 133°
2026-05-08 06:21 1.02376 104.04768 11589 ft 341 kts 118°
2026-05-08 06:22 1.01378 104.06849 12224 ft 341 kts 112°
2026-05-08 06:22 1.00468 104.09039 12839 ft 344 kts 111°
2026-05-08 06:22 0.99543 104.11288 13444 ft 347 kts 111°
2026-05-08 06:22 0.98677 104.13371 13994 ft 349 kts 111°
2026-05-08 06:23 0.97722 104.15653 14569 ft 352 kts 111°
2026-05-08 06:23 0.96780 104.17899 15101 ft 355 kts 111°
2026-05-08 06:23 0.95818 104.20179 15639 ft 358 kts 112°
2026-05-08 06:23 0.94755 104.22441 16159 ft 361 kts 116°
2026-05-08 06:24 0.93533 104.24638 16688 ft 364 kts 120°
2026-05-08 06:24 0.92212 104.26778 17216 ft 365 kts 121°
2026-05-08 06:24 0.90852 104.28952 17733 ft 367 kts 120°
2026-05-08 06:24 0.89498 104.31113 18232 ft 369 kts 120°
2026-05-08 06:25 0.88129 104.33285 18688 ft 372 kts 120°
2026-05-08 06:25 0.86732 104.35510 19143 ft 374 kts 120°
2026-05-08 06:25 0.85368 104.37691 19581 ft 377 kts 120°
2026-05-08 06:25 0.83970 104.39934 20025 ft 379 kts 120°
2026-05-08 06:26 0.82566 104.42179 20460 ft 381 kts 121°
2026-05-08 06:26 0.81075 104.44359 20874 ft 384 kts 123°
2026-05-08 06:26 0.79519 104.46555 21285 ft 386 kts 123°
2026-05-08 06:26 0.77961 104.48749 21687 ft 388 kts 122°
2026-05-08 06:27 0.76394 104.50953 22067 ft 390 kts 122°
2026-05-08 06:27 0.74829 104.53157 22451 ft 393 kts 122°
2026-05-08 06:27 0.73084 104.55283 22798 ft 399 kts 134°
2026-05-08 06:27 0.70806 104.56980 23178 ft 406 kts 148°
2026-05-08 06:28 0.68212 104.58082 23573 ft 412 kts 159°
2026-05-08 06:28 0.65419 104.58911 23998 ft 414 kts 161°
2026-05-08 06:28 0.62644 104.59705 24362 ft 416 kts 161°
2026-05-08 06:28 0.59858 104.60513 24730 ft 418 kts 161°
2026-05-08 06:29 0.57036 104.61342 25103 ft 419 kts 160°
2026-05-08 06:29 0.54252 104.62166 25451 ft 421 kts 160°
2026-05-08 06:29 0.51404 104.63012 25795 ft 423 kts 159°
2026-05-08 06:29 0.48788 104.64091 26069 ft 420 kts 146°
2026-05-08 06:30 0.46486 104.65868 26445 ft 415 kts 131°
2026-05-08 06:30 0.44740 104.68165 26765 ft 412 kts 119°
2026-05-08 06:30 0.43304 104.70653 27065 ft 414 kts 117°
2026-05-08 06:30 0.41878 104.73179 27312 ft 418 kts 117°
2026-05-08 06:31 0.40431 104.75732 27599 ft 420 kts 118°
2026-05-08 06:31 0.38996 104.78245 27901 ft 421 kts 118°
2026-05-08 06:31 0.37540 104.80783 28190 ft 423 kts 118°
2026-05-08 06:31 0.36061 104.83351 28477 ft 424 kts 118°
2026-05-08 06:32 0.34592 104.85898 28751 ft 426 kts 118°
2026-05-08 06:32 0.33112 104.88460 28999 ft 428 kts 118°
2026-05-08 06:32 0.31621 104.91044 29229 ft 430 kts 118°
2026-05-08 06:32 0.30121 104.93640 29474 ft 432 kts 118°
2026-05-08 06:33 0.28622 104.96234 29721 ft 434 kts 118°
2026-05-08 06:33 0.27099 104.98871 29952 ft 436 kts 118°
2026-05-08 06:33 0.25588 105.01486 30171 ft 438 kts 118°
2026-05-08 06:33 0.24052 105.04141 30398 ft 439 kts 118°
2026-05-08 06:34 0.22512 105.06802 30610 ft 441 kts 118°
2026-05-08 06:34 0.20984 105.09441 30828 ft 443 kts 118°
2026-05-08 06:34 0.19425 105.12134 31051 ft 444 kts 119°
2026-05-08 06:34 0.17892 105.14786 31256 ft 446 kts 119°
2026-05-08 06:35 0.16326 105.17493 31445 ft 448 kts 119°
2026-05-08 06:35 0.14776 105.20172 31643 ft 450 kts 119°
2026-05-08 06:35 0.13206 105.22888 31842 ft 451 kts 119°
2026-05-08 06:35 0.11639 105.25597 32031 ft 453 kts 119°
2026-05-08 06:36 0.10044 105.28353 32222 ft 455 kts 119°
2026-05-08 06:36 0.08461 105.31089 32419 ft 456 kts 119°
2026-05-08 06:36 0.06882 105.33818 32601 ft 458 kts 119°
2026-05-08 06:36 0.05276 105.36595 32799 ft 460 kts 119°
2026-05-08 06:37 0.03669 105.39376 33002 ft 461 kts 119°
2026-05-08 06:37 0.02069 105.42141 33219 ft 462 kts 119°
2026-05-08 06:37 0.00456 105.44930 33524 ft 462 kts 119°
2026-05-08 06:37 -0.01108 105.47636 33840 ft 461 kts 119°
2026-05-08 06:38 -0.02703 105.50394 34160 ft 460 kts 119°
2026-05-08 06:38 -0.04324 105.53196 34462 ft 460 kts 119°
2026-05-08 06:38 -0.05872 105.55875 34756 ft 459 kts 119°
2026-05-08 06:38 -0.07419 105.58551 35052 ft 459 kts 119°
2026-05-08 06:39 -0.08987 105.61263 35306 ft 459 kts 119°
2026-05-08 06:39 -0.10569 105.63999 35489 ft 461 kts 119°
2026-05-08 06:39 -0.12214 105.66823 35649 ft 462 kts 119°
2026-05-08 06:39 -0.13824 105.69594 35831 ft 463 kts 119°
2026-05-08 06:40 -0.15451 105.72404 36009 ft 464 kts 119°
2026-05-08 06:40 -0.17058 105.75179 36162 ft 466 kts 119°
2026-05-08 06:40 -0.18670 105.77966 36340 ft 466 kts 119°
2026-05-08 06:40 -0.20312 105.80805 36494 ft 468 kts 119°
2026-05-08 06:41 -0.21936 105.83614 36631 ft 469 kts 119°
2026-05-08 06:41 -0.23559 105.86422 36775 ft 470 kts 119°
2026-05-08 06:41 -0.26869 105.92144 36784 ft 471 kts 119°
2026-05-08 06:42 -0.30142 105.97804 36791 ft 471 kts 119°
2026-05-08 06:42 -0.33417 106.03471 36791 ft 471 kts 119°
2026-05-08 06:43 -0.36692 106.09135 36786 ft 471 kts 119°
2026-05-08 06:43 -0.39968 106.14801 36789 ft 471 kts 119°
2026-05-08 06:44 -0.43256 106.20490 36793 ft 471 kts 118°
2026-05-08 06:44 -0.46528 106.26153 36792 ft 471 kts 118°
2026-05-08 06:45 -0.49810 106.31831 36792 ft 471 kts 118°
2026-05-08 06:45 -0.53070 106.37476 36793 ft 470 kts 118°
2026-05-08 06:46 -0.56341 106.43143 36794 ft 470 kts 118°
2026-05-08 06:46 -0.59640 106.48768 36790 ft 470 kts 121°
2026-05-08 06:47 -0.63425 106.54127 36791 ft 470 kts 127°
2026-05-08 06:47 -0.67686 106.59090 36788 ft 470 kts 130°
2026-05-08 06:48 -0.72015 106.63951 36781 ft 471 kts 130°
2026-05-08 06:48 -0.76373 106.68870 36775 ft 470 kts 129°
2026-05-08 06:49 -0.80698 106.73765 36774 ft 469 kts 129°
2026-05-08 06:49 -0.85033 106.78662 36773 ft 468 kts 129°
2026-05-08 06:50 -0.89354 106.83538 36783 ft 466 kts 129°
2026-05-08 06:50 -0.93663 106.88397 36789 ft 464 kts 130°
2026-05-08 06:51 -0.97935 106.93213 36789 ft 463 kts 129°
2026-05-08 06:51 -1.02221 106.98045 36789 ft 462 kts 129°
2026-05-08 06:52 -1.06500 107.02871 36789 ft 463 kts 129°
2026-05-08 06:52 -1.10779 107.07695 36791 ft 464 kts 129°
2026-05-08 06:53 -1.15087 107.12521 36788 ft 464 kts 130°
2026-05-08 06:53 -1.19413 107.17383 36790 ft 465 kts 129°
2026-05-08 06:54 -1.23689 107.22202 36787 ft 465 kts 129°
2026-05-08 06:54 -1.27990 107.27058 36789 ft 466 kts 129°
2026-05-08 06:55 -1.32290 107.31917 36790 ft 466 kts 129°
2026-05-08 06:55 -1.36597 107.36781 36789 ft 467 kts 130°
2026-05-08 06:56 -1.40864 107.41678 36790 ft 467 kts 129°
2026-05-08 06:56 -1.45111 107.46600 36791 ft 467 kts 129°
2026-05-08 06:57 -1.49351 107.51517 36790 ft 467 kts 129°
2026-05-08 06:57 -1.53587 107.56428 36790 ft 468 kts 129°
2026-05-08 06:58 -1.57851 107.61369 36791 ft 467 kts 129°
2026-05-08 06:58 -1.62119 107.66318 36790 ft 468 kts 129°
2026-05-08 06:59 -1.66343 107.71247 36782 ft 468 kts 129°
2026-05-08 06:59 -1.70585 107.76178 36774 ft 468 kts 129°
2026-05-08 07:00 -1.74855 107.81135 36772 ft 468 kts 129°
2026-05-08 07:00 -1.79108 107.86066 36771 ft 468 kts 129°
2026-05-08 07:01 -1.83343 107.90975 36769 ft 468 kts 129°
2026-05-08 07:01 -1.87628 107.95943 36770 ft 468 kts 129°
2026-05-08 07:02 -1.91874 108.00868 36771 ft 468 kts 129°
2026-05-08 07:02 -1.96132 108.05805 36770 ft 468 kts 129°
2026-05-08 07:03 -2.00374 108.10726 36770 ft 467 kts 129°
2026-05-08 07:03 -2.04627 108.15662 36771 ft 467 kts 129°
2026-05-08 07:04 -2.08879 108.20587 36777 ft 467 kts 129°
2026-05-08 07:04 -2.13149 108.25513 36783 ft 468 kts 129°
2026-05-08 07:05 -2.17422 108.30434 36783 ft 469 kts 129°
2026-05-08 07:05 -2.21698 108.35380 36780 ft 470 kts 129°
2026-05-08 07:06 -2.25977 108.40342 36780 ft 470 kts 129°
2026-05-08 07:06 -2.30232 108.45276 36778 ft 471 kts 129°
2026-05-08 07:07 -2.34504 108.50236 36779 ft 470 kts 129°
2026-05-08 07:07 -2.38763 108.55180 36780 ft 471 kts 129°
2026-05-08 07:08 -2.43054 108.60165 36783 ft 471 kts 129°
2026-05-08 07:08 -2.47333 108.65138 36790 ft 472 kts 129°
2026-05-08 07:09 -2.51610 108.70106 36791 ft 472 kts 129°
2026-05-08 07:09 -2.55930 108.75101 36791 ft 472 kts 129°
2026-05-08 07:10 -2.60225 108.80066 36787 ft 473 kts 129°
2026-05-08 07:10 -2.64551 108.85067 36784 ft 473 kts 129°
2026-05-08 07:11 -2.68858 108.90048 36778 ft 473 kts 129°
2026-05-08 07:11 -2.73141 108.95003 36773 ft 474 kts 129°
2026-05-08 07:12 -2.77469 109.00011 36770 ft 474 kts 129°
2026-05-08 07:12 -2.81786 109.05005 36770 ft 474 kts 129°
2026-05-08 07:13 -2.86098 109.09995 36771 ft 474 kts 129°
2026-05-08 07:13 -2.90426 109.15003 36771 ft 474 kts 129°
2026-05-08 07:14 -2.94724 109.19990 36771 ft 474 kts 128°
2026-05-08 07:14 -2.99035 109.24998 36771 ft 474 kts 129°
2026-05-08 07:15 -3.03317 109.29975 36772 ft 474 kts 129°
2026-05-08 07:15 -3.07629 109.34985 36771 ft 474 kts 129°
2026-05-08 07:16 -3.11948 109.39994 36772 ft 473 kts 129°
2026-05-08 07:16 -3.16250 109.44958 36772 ft 473 kts 129°
2026-05-08 07:17 -3.20551 109.49942 36772 ft 473 kts 129°
2026-05-08 07:17 -3.24848 109.54932 36772 ft 473 kts 129°
2026-05-08 07:18 -3.29128 109.59909 36771 ft 474 kts 129°
2026-05-08 07:18 -3.33440 109.64925 36772 ft 474 kts 129°
2026-05-08 07:19 -3.37720 109.69927 36771 ft 473 kts 128°
2026-05-08 07:19 -3.42018 109.74948 36772 ft 473 kts 128°
2026-05-08 07:20 -3.46309 109.79950 36771 ft 473 kts 129°
2026-05-08 07:20 -3.50590 109.84934 36771 ft 473 kts 128°
2026-05-08 07:21 -3.54900 109.89952 36772 ft 474 kts 129°
2026-05-08 07:21 -3.59187 109.94944 36772 ft 474 kts 129°
2026-05-08 07:22 -3.63489 109.99952 36768 ft 474 kts 129°
2026-05-08 07:22 -3.67783 110.04951 36767 ft 474 kts 128°
2026-05-08 07:23 -3.72084 110.09963 36767 ft 474 kts 128°
2026-05-08 07:23 -3.76410 110.15005 36768 ft 474 kts 128°
2026-05-08 07:24 -3.80704 110.20010 36768 ft 475 kts 128°
2026-05-08 07:24 -3.85031 110.25055 36769 ft 475 kts 129°
2026-05-08 07:25 -3.89329 110.30064 36773 ft 475 kts 128°
2026-05-08 07:26 -3.95781 110.37596 36772 ft 475 kts 128°
2026-05-08 07:26 -3.99884 110.42790 36771 ft 474 kts 126°
2026-05-08 07:27 -4.03917 110.48020 36771 ft 474 kts 126°
2026-05-08 07:27 -4.07944 110.53245 36771 ft 475 kts 126°
2026-05-08 07:28 -4.12003 110.58494 36772 ft 475 kts 126°
2026-05-08 07:28 -4.16062 110.63711 36769 ft 475 kts 126°
2026-05-08 07:29 -4.20096 110.68941 36769 ft 475 kts 126°
2026-05-08 07:29 -4.24121 110.74178 36771 ft 475 kts 126°
2026-05-08 07:30 -4.28164 110.79430 36770 ft 475 kts 126°
2026-05-08 07:30 -4.32237 110.84714 36771 ft 475 kts 126°
2026-05-08 07:31 -4.36275 110.89952 36769 ft 476 kts 126°
2026-05-08 07:31 -4.40331 110.95213 36773 ft 475 kts 126°
2026-05-08 07:32 -4.44369 111.00455 36770 ft 475 kts 126°
2026-05-08 07:32 -4.48418 111.05714 36768 ft 475 kts 126°
2026-05-08 07:33 -4.52450 111.10947 36770 ft 476 kts 126°
2026-05-08 07:33 -4.56498 111.16206 36769 ft 476 kts 126°
2026-05-08 07:34 -4.60543 111.21464 36770 ft 476 kts 126°
2026-05-08 07:34 -4.64613 111.26726 36767 ft 476 kts 126°
2026-05-08 07:35 -4.68669 111.31945 36769 ft 476 kts 126°
2026-05-08 07:35 -4.72749 111.37206 36767 ft 477 kts 126°
2026-05-08 07:36 -4.76800 111.42429 36770 ft 477 kts 126°
2026-05-08 07:36 -4.80881 111.47697 36766 ft 478 kts 126°
2026-05-08 07:37 -4.84974 111.52984 36769 ft 478 kts 126°
2026-05-08 07:37 -4.89048 111.58247 36771 ft 478 kts 127°
2026-05-08 07:38 -4.93143 111.63536 36776 ft 478 kts 127°
2026-05-08 07:38 -4.97196 111.68791 36774 ft 478 kts 126°
2026-05-08 07:39 -5.01274 111.74088 36772 ft 478 kts 126°
2026-05-08 07:39 -5.05355 111.79374 36772 ft 479 kts 126°
2026-05-08 07:40 -5.09446 111.84671 36771 ft 480 kts 127°
2026-05-08 07:40 -5.13524 111.89918 36772 ft 480 kts 127°
2026-05-08 07:41 -5.17617 111.95181 36772 ft 480 kts 127°
2026-05-08 07:41 -5.21742 112.00502 36771 ft 481 kts 127°
2026-05-08 07:42 -5.25831 112.05791 36771 ft 481 kts 127°
2026-05-08 07:42 -5.29942 112.11113 36771 ft 481 kts 127°
2026-05-08 07:43 -5.34053 112.16438 36771 ft 482 kts 127°
2026-05-08 07:43 -5.38152 112.21749 36770 ft 482 kts 127°
2026-05-08 07:44 -5.42265 112.27075 36770 ft 482 kts 127°
2026-05-08 07:44 -5.46378 112.32405 36771 ft 482 kts 127°
2026-05-08 07:45 -5.50490 112.37735 36770 ft 482 kts 127°
2026-05-08 07:45 -5.54612 112.43080 36771 ft 483 kts 127°
2026-05-08 07:46 -5.58738 112.48434 36770 ft 482 kts 127°
2026-05-08 07:46 -5.62852 112.53770 36771 ft 482 kts 127°
2026-05-08 07:47 -5.66947 112.59081 36771 ft 481 kts 127°
2026-05-08 07:47 -5.71052 112.64410 36770 ft 482 kts 128°
2026-05-08 07:48 -5.75141 112.69742 36771 ft 481 kts 127°
2026-05-08 07:48 -5.79232 112.75078 36773 ft 481 kts 128°
2026-05-08 07:49 -5.83339 112.80419 36776 ft 481 kts 128°
2026-05-08 07:49 -5.87441 112.85753 36781 ft 481 kts 128°
2026-05-08 07:50 -5.91549 112.91091 36785 ft 480 kts 128°
2026-05-08 07:50 -5.95644 112.96416 36791 ft 480 kts 128°
2026-05-08 07:51 -5.99707 113.01698 36785 ft 480 kts 128°
2026-05-08 07:51 -6.03802 113.07024 36774 ft 480 kts 128°
2026-05-08 07:52 -6.07892 113.12344 36773 ft 479 kts 128°
2026-05-08 07:52 -6.11954 113.17621 36773 ft 479 kts 128°
2026-05-08 07:53 -6.16008 113.22870 36774 ft 479 kts 128°
2026-05-08 07:53 -6.20092 113.28172 36769 ft 479 kts 129°
2026-05-08 07:54 -6.24547 113.33211 36770 ft 478 kts 135°
2026-05-08 07:54 -6.29481 113.37698 36770 ft 478 kts 141°
2026-05-08 07:55 -6.34845 113.41709 36774 ft 478 kts 145°
2026-05-08 07:55 -6.40251 113.45593 36772 ft 478 kts 145°
2026-05-08 07:56 -6.45691 113.49509 36770 ft 478 kts 145°
2026-05-08 07:56 -6.51112 113.53419 36775 ft 477 kts 145°
2026-05-08 07:57 -6.56513 113.57320 36774 ft 477 kts 145°
2026-05-08 07:57 -6.61945 113.61243 36773 ft 477 kts 145°
2026-05-08 07:58 -6.67347 113.65149 36772 ft 477 kts 144°
2026-05-08 07:58 -6.72766 113.69096 36774 ft 477 kts 144°
2026-05-08 07:59 -6.78188 113.73036 36773 ft 476 kts 144°
2026-05-08 07:59 -6.83590 113.76948 36779 ft 475 kts 145°
2026-05-08 08:00 -6.88843 113.80749 36782 ft 474 kts 145°
2026-05-08 08:00 -6.94219 113.84639 36784 ft 475 kts 144°
2026-05-08 08:01 -6.99604 113.88538 36785 ft 475 kts 144°
2026-05-08 08:01 -7.05003 113.92451 36780 ft 475 kts 144°
2026-05-08 08:02 -7.10392 113.96359 36782 ft 475 kts 145°
2026-05-08 08:02 -7.14874 113.99595 36792 ft 475 kts 145°